GEFSNGP_con_maxscp_318.txt.gz
SCP
0 0 0 0 0 0 0 0 0 1 1 1 1 2 2 2 3 4 4 4 4 5 9 11 11 10 9 9 8 6 4 3 3 3 4 5 5 5 6 6 6 5 4 3
0 0 0 0 0 0 0 0 0 1 1 1 2 2 2 3 3 3 4 4 3 4 7 9 9 9 10 10 8 6 4 3 3 4 5 5 6 7 8 8 7 5 4 3
0 0 0 0 0 0 0 0 0 1 1 2 2 3 3 2 3 3 3 3 3 4 5 6 7 9 10 10 7 5 5 5 5 5 5 5 6 8 9 9 7 6 5 4
0 0 0 0 1 1 1 1 1 1 1 2 2 2 2 2 2 3 3 3 4 4 4 5 6 8 9 8 6 5 5 5 5 5 5 5 5 6 7 7 6 6 5 5
0 0 0 0 1 1 1 1 1 1 1 2 2 2 1 2 2 3 3 4 4 4 4 5 5 6 7 6 5 4 4 4 5 5 4 4 5 5 6 6 6 6 5 5
0 0 0 0 1 1 1 1 1 1 1 1 2 2 2 2 2 3 4 4 4 4 4 4 5 5 6 6 5 5 5 4 4 5 5 5 5 6 6 6 6 5 4 4
0 0 0 0 1 1 1 1 1 1 1 1 2 2 3 3 3 4 5 5 4 4 5 5 5 5 6 6 6 6 5 4 4 5 5 5 5 6 6 6 5 4 4 3
0 0 0 1 1 1 1 1 1 1 1 1 2 4 5 5 5 5 5 5 5 5 5 6 6 7 7 6 5 5 4 4 4 4 4 4 5 5 5 5 4 4 3 3
1 1 1 1 1 1 1 1 1 1 1 2 3 5 7 7 5 5 6 5 5 5 6 8 10 11 10 8 6 5 4 3 3 4 4 4 4 4 4 4 4 3 3 3
1 1 1 1 1 1 1 1 1 1 1 2 4 6 7 7 5 5 5 5 6 6 7 10 13 14 14 12 9 7 6 4 4 4 4 4 4 4 4 4 3 3 3 3
1 1 1 1 1 1 1 1 1 1 2 3 4 6 7 6 5 5 5 5 6 6 7 8 10 12 12 12 10 9 7 5 4 4 4 4 4 4 3 3 3 3 3 3
1 1 1 1 2 1 1 1 1 1 2 3 5 6 6 6 4 4 4 5 5 6 6 6 7 7 8 8 8 7 6 5 4 4 4 4 4 4 3 2 2 1 2 2
0 1 1 2 2 1 1 1 1 1 3 5 6 6 5 5 4 3 4 4 5 6 6 7 7 6 6 5 5 5 5 4 4 4 4 4 4 4 3 3 2 1 1 1
0 1 1 2 2 1 1 1 1 2 3 6 7 6 4 4 4 4 4 5 6 7 7 7 7 7 6 5 4 4 3 3 4 4 5 5 5 4 4 4 3 3 2 1
1 1 1 2 2 2 1 1 2 2 3 5 6 5 4 4 4 5 6 8 8 8 7 6 6 5 4 4 4 3 3 3 4 5 6 5 6 6 6 6 5 4 3 2
1 1 1 2 3 3 2 2 2 2 3 3 4 4 5 6 6 8 9 9 8 7 6 5 4 4 3 3 3 3 3 4 5 6 6 6 7 7 8 8 6 5 3 3
2 2 2 3 4 4 4 3 3 2 2 3 3 5 6 8 9 10 9 7 5 5 4 4 4 4 4 3 3 3 4 5 5 5 6 6 7 9 10 9 7 5 3 3
2 2 2 3 3 4 4 4 3 3 3 4 5 6 7 8 11 12 10 6 4 3 3 3 4 5 5 5 5 5 6 6 6 5 6 7 8 10 11 9 7 5 3 3
1 1 1 2 2 3 4 4 4 4 5 5 7 7 6 6 8 11 12 10 7 5 4 3 4 6 7 7 7 9 8 7 7 7 8 8 9 11 10 9 6 4 3 3
1 1 1 2 2 3 4 5 5 6 6 7 7 6 6 4 4 7 10 11 9 7 6 6 7 8 9 8 8 10 10 9 9 9 9 9 10 10 9 7 5 3 2 2
1 1 1 2 2 3 3 4 5 5 6 6 6 5 5 4 3 3 4 5 5 5 7 8 9 10 9 8 9 10 11 11 11 10 9 9 9 9 7 5 3 2 1 1
1 1 1 2 2 2 3 3 4 4 5 5 4 4 4 3 2 1 1 0 1 2 5 7 7 6 6 7 9 11 12 11 10 9 8 7 7 6 4 3 2 1 1 1
1 1 1 2 2 2 2 3 3 3 3 3 3 3 2 1 1 0 0 0 0 1 2 3 2 2 3 6 8 9 9 9 8 7 6 5 4 3 2 1 1 1 1 1
1 1 1 2 2 2 2 2 2 2 2 2 2 1 1 1 0 0 0 0 0 0 0 0 0 0 2 4 5 6 6 6 7 5 4 3 3 2 1 1 1 1 1 1
1 1 2 2 2 2 2 2 2 1 1 1 1 1 1 1 0 0 0 0 0 0 0 0 0 0 1 2 2 2 3 3 3 3 2 1 1 1 1 1 1 1 1 1
1 1 2 2 2 2 2 1 1 1 1 1 0 0 0 0 0 0 0 0 0 0 0 0 0 0 0 0 0 1 1 1 1 1 1 1 1 1 1 1 1 1 1 1
1 1 1 1 2 1 1 1 1 1 0 0 0 0 0 0 0 0 0 0 0 0 0 0 0 0 0 0 0 0 0 1 1 1 1 1 0 0 0 1 1 1 1 1

GEFSNGP_con_maxscp_324.txt.gz
SCP
0 0 0 0 0 0 0 0 0 1 2 3 3 2 4 6 8 8 8 8 7 7 7 8 10 11 13 14 17 19 20 17 14 11 8 7 6 7 8 8 8 8 8 8
0 0 0 0 0 0 0 0 0 1 2 3 3 3 4 5 6 7 7 7 7 7 8 10 11 11 13 15 17 19 18 16 14 12 9 8 7 7 8 8 8 8 8 8
0 0 0 0 0 0 0 0 1 1 3 4 4 3 4 5 5 6 6 6 7 8 11 14 14 12 12 14 16 15 14 14 14 12 10 9 8 8 8 8 8 8 8 8
0 0 0 0 0 0 0 1 1 2 3 4 4 3 4 5 6 6 6 6 8 11 14 17 16 13 11 11 11 11 11 11 12 11 10 10 9 8 8 8 7 7 7 7
0 0 0 0 1 1 1 1 1 2 3 4 4 3 4 5 6 6 6 6 8 11 14 16 15 12 9 8 7 7 8 9 10 10 11 11 10 9 9 8 8 8 8 8
1 1 0 1 1 1 1 1 2 3 4 4 4 4 4 5 5 5 6 6 8 10 13 15 13 11 9 7 7 7 7 8 9 10 11 11 11 10 9 9 9 9 9 9
1 1 1 1 1 1 1 2 3 4 5 4 4 4 4 4 5 6 7 8 10 12 14 14 12 10 10 9 9 10 10 9 9 10 11 11 12 12 11 10 10 10 10 10
1 1 2 2 2 2 2 3 4 4 4 4 4 4 4 5 6 7 9 12 14 16 16 13 11 10 10 10 11 13 13 13 12 12 11 12 13 13 12 11 10 10 10 10
2 2 2 3 2 2 3 3 4 4 4 4 5 5 6 8 10 12 14 18 20 19 16 12 11 10 9 10 11 12 13 13 13 12 11 11 11 12 11 11 10 9 9 9
2 2 2 2 2 2 3 3 3 3 3 4 5 5 7 11 16 18 21 22 21 18 13 11 10 9 9 10 11 11 11 11 10 10 9 10 10 10 10 9 9 9 9 9
2 2 2 2 2 2 2 2 2 2 3 4 6 6 8 14 20 22 23 22 18 14 11 9 8 8 9 12 14 14 12 9 7 6 7 9 10 10 9 8 8 7 8 9
2 2 2 2 2 2 2 2 2 2 3 5 6 7 10 16 21 22 21 18 14 11 9 8 7 7 10 14 17 17 14 10 6 5 6 7 9 10 10 8 6 5 5 5
1 1 1 1 2 2 2 2 2 2 3 4 6 8 12 17 20 19 17 14 11 9 9 8 9 10 11 15 18 18 15 10 7 6 5 5 6 8 9 8 6 4 3 2
1 1 1 1 1 1 1 2 2 2 3 5 6 9 13 17 17 16 14 11 9 9 9 9 10 12 12 14 15 15 13 11 9 8 6 5 5 6 7 8 8 8 5 3
1 1 1 1 1 1 1 2 2 3 4 6 7 10 14 16 15 13 10 8 7 7 8 9 10 11 12 13 13 12 11 10 9 8 7 5 5 4 5 7 9 10 9 6
1 1 1 1 1 1 1 2 3 4 5 5 7 10 12 13 11 10 9 8 7 7 8 9 10 10 12 12 11 9 7 6 6 6 5 5 4 3 4 7 9 10 9 8
2 2 1 1 1 1 2 3 4 5 5 5 6 7 8 8 9 10 10 9 9 9 9 9 9 10 10 10 8 7 5 4 3 3 3 3 3 3 4 6 8 9 7 6
5 2 1 1 2 2 3 4 5 6 6 6 6 6 6 7 10 12 13 12 10 9 8 6 6 6 7 8 8 7 5 3 2 2 1 1 2 3 4 7 9 9 6 3
6 3 1 2 3 4 5 6 7 7 8 7 7 7 8 11 14 15 15 13 9 7 5 4 3 4 6 8 8 7 5 3 2 2 1 1 2 4 5 8 10 9 5 3
6 4 2 3 4 5 6 6 7 8 8 8 8 11 14 16 17 17 14 10 6 4 4 4 4 5 7 8 7 6 5 3 2 1 1 2 3 5 6 9 12 10 5 3
4 4 4 5 6 6 6 6 6 7 8 9 12 17 19 18 17 14 11 7 4 4 7 7 6 6 7 6 4 4 3 2 1 1 2 3 4 4 5 9 14 11 6 4
4 4 5 5 6 6 6 6 7 8 10 13 17 19 18 15 12 9 6 4 2 5 9 10 9 7 6 5 4 3 2 1 1 1 3 4 4 4 5 10 13 10 6 5
4 4 4 4 4 5 5 6 7 8 11 14 15 14 12 9 6 4 3 2 1 3 7 8 8 10 11 11 9 8 6 3 2 2 3 4 5 6 9 12 12 9 6 4
3 3 3 3 3 3 3 4 4 5 7 8 8 7 6 4 3 2 1 1 1 2 4 4 7 12 16 16 15 13 10 6 4 4 5 7 9 11 13 12 10 7 4 3
3 3 3 2 2 2 2 2 2 2 2 3 3 3 2 2 1 1 1 0 0 1 2 2 5 9 12 13 12 11 8 5 4 5 7 9 10 11 11 9 6 4 2 1
3 3 2 2 2 2 2 2 2 1 1 1 2 2 1 1 1 1 1 0 0 0 1 1 3 4 5 6 5 5 3 2 2 3 4 5 6 5 4 3 2 1 1 0
2 2 2 2 1 1 1 1 1 1 1 1 1 1 1 1 1 1 0 0 0 0 0 1 1 2 2 3 3 2 2 1 1 1 2 2 2 1 1 1 0 0 0 0

GEFSNGP_con_maxscp_330.txt.gz
SCP
0 0 0 0 0 0 0 0 1 1 1 1 1 2 2 1 1 1 2 2 2 2 2 3 5 6 7 9 10 11 10 7 6 5 4 4 4 3 3 2 3 3 4 4
0 0 0 0 0 0 0 0 1 1 1 1 2 2 2 2 2 2 2 2 2 2 2 3 5 6 7 9 10 11 10 8 6 5 5 5 5 4 3 3 3 3 4 4
0 0 0 0 0 0 0 1 1 1 2 2 3 3 3 2 2 2 2 2 2 2 3 4 5 5 6 8 10 11 10 8 6 6 6 6 6 5 4 4 4 4 4 4
0 0 0 0 0 0 1 1 1 2 2 3 3 2 2 2 2 2 2 2 2 3 4 6 6 5 5 7 10 10 10 8 7 7 6 6 7 7 6 6 5 4 4 5
0 0 0 0 0 1 1 1 1 2 2 2 2 1 1 1 1 2 2 3 3 4 6 7 6 5 5 7 9 10 9 8 8 7 6 6 7 7 7 7 5 5 5 6
0 0 0 0 0 1 1 1 1 1 1 1 1 1 1 1 2 2 3 4 4 5 7 7 6 5 5 7 8 9 8 8 7 6 6 6 6 7 7 7 6 5 6 7
0 0 0 0 1 1 1 1 1 1 2 2 2 2 2 3 3 3 4 5 5 6 7 7 7 6 6 7 8 8 7 6 5 5 6 6 7 7 7 7 6 6 6 7
0 0 0 0 1 1 1 1 2 3 4 4 3 3 3 4 4 4 4 5 5 6 8 8 7 6 6 7 7 7 6 4 4 4 5 6 7 7 7 7 7 7 7 8
0 0 0 0 0 1 1 1 3 5 5 4 3 3 3 5 5 5 5 5 6 7 9 8 7 6 5 5 6 6 5 4 4 3 4 4 5 5 5 6 7 8 8 9
1 1 1 1 1 1 1 1 3 4 4 3 2 2 4 6 7 6 5 6 7 9 9 8 5 4 4 3 4 5 6 5 4 4 3 3 3 4 4 5 7 8 9 10
1 1 1 1 1 1 1 1 2 2 2 1 1 3 6 7 8 7 6 7 9 10 9 6 4 3 3 2 2 4 6 6 5 4 4 4 4 4 4 4 5 6 7 8
1 0 0 1 1 1 1 1 1 2 2 1 2 4 7 8 8 7 7 7 9 9 7 4 3 3 2 2 2 3 7 8 6 5 4 5 5 4 4 3 3 3 3 4
0 0 0 0 0 0 0 0 1 1 2 2 3 6 9 9 8 7 6 6 6 5 4 3 3 3 2 2 2 4 7 9 8 7 6 5 6 6 5 4 3 2 1 1
0 0 0 0 0 0 0 0 1 1 1 3 5 8 9 9 8 6 5 5 4 4 3 3 3 3 3 3 4 5 9 10 10 8 7 6 6 6 6 5 4 3 1 0
0 0 0 0 0 0 0 0 0 1 1 3 6 8 8 8 7 5 4 4 4 4 4 3 3 4 4 5 5 6 8 9 9 8 6 5 5 6 6 6 5 4 2 1
0 0 0 0 0 0 0 0 0 1 1 2 4 7 7 6 5 4 4 4 4 4 4 4 4 5 5 5 5 6 6 6 6 5 5 4 5 5 6 6 6 4 3 2
0 0 0 0 0 0 0 0 0 1 1 2 3 5 5 4 3 3 3 4 4 4 4 4 5 5 5 6 5 5 4 3 3 2 3 3 4 5 5 5 5 5 3 2
0 0 0 0 0 0 0 0 0 1 1 2 4 5 4 3 2 2 3 4 5 4 4 4 5 6 6 6 5 4 3 2 1 1 1 3 4 4 5 5 4 4 3 2
0 0 1 1 1 1 0 0 0 1 2 3 5 4 3 2 2 2 2 3 5 5 4 5 5 6 6 5 4 3 1 1 0 0 1 2 3 4 5 4 4 3 2 2
1 1 2 2 2 1 1 1 1 2 3 5 5 4 2 1 1 1 2 2 3 4 4 4 5 4 3 3 2 1 1 0 0 0 1 2 3 4 4 4 3 2 2 2
2 3 3 3 2 2 2 2 3 5 6 5 4 3 2 1 1 1 1 1 1 1 2 2 3 2 2 2 1 1 1 0 0 0 1 1 3 4 4 4 3 2 2 2
2 3 3 2 2 2 3 5 6 6 6 4 3 2 2 1 1 1 1 0 0 0 0 1 1 1 1 1 1 1 1 0 0 1 1 2 2 3 3 3 2 2 1 2
1 2 2 2 2 3 5 6 6 6 4 3 2 2 2 1 1 0 0 0 1 0 0 0 0 1 1 1 1 1 1 0 1 1 2 2 2 3 3 3 2 1 1 2
2 3 3 3 3 4 5 5 5 4 2 2 2 2 2 1 1 0 0 0 0 0 0 0 0 0 0 0 1 1 1 0 1 1 2 3 3 3 3 3 2 1 1 2
4 5 5 5 5 5 4 4 3 2 2 2 2 1 1 1 0 0 0 0 0 0 0 0 0 0 0 0 0 0 0 0 0 1 2 3 3 2 2 2 2 1 2 2
5 5 5 4 4 4 3 3 2 2 2 1 1 1 1 0 0 0 0 0 0 0 0 0 0 0 0 0 0 0 0 0 1 1 2 3 3 2 2 2 1 1 1 1
5 5 4 4 3 3 2 2 1 1 1 1 1 0 0 0 0 0 0 0 0 0 0 0 0 0 0 1 1 1 1 1 1 2 3 3 3 2 2 1 1 1 1 1

GEFSNGP_con_maxscp_336.txt.gz
SCP
0 0 0 0 0 0 0 0 0 1 1 1 0 1 1 1 2 1 1 1 2 2 3 2 2 2 2 3 5 6 6 5 4 3 3 3 2 1 1 1 1 2 2 2
0 0 0 0 0 0 0 0 0 0 0 0 0 1 1 1 2 2 2 2 3 3 3 3 2 1 2 3 4 5 6 6 5 4 3 3 3 2 1 1 2 2 2 3
0 0 0 0 0 0 0 0 0 0 0 0 1 1 1 1 2 2 3 4 4 4 4 3 1 1 1 2 3 5 6 6 6 5 4 4 3 2 2 2 2 3 3 4
0 0 0 0 0 0 0 0 0 0 0 1 1 1 1 1 2 3 4 5 5 4 4 2 1 1 1 2 3 4 6 6 7 6 5 4 3 2 2 2 3 3 4 4
0 0 0 0 0 0 0 0 0 0 1 1 1 1 1 1 2 3 4 4 4 3 3 2 1 1 1 2 2 3 5 6 7 7 6 4 3 2 2 2 2 3 3 3
0 0 0 0 0 0 0 0 0 0 1 1 1 1 1 1 2 3 3 4 4 3 3 2 2 2 2 2 2 3 4 6 7 7 6 4 3 2 2 2 2 2 3 3
0 0 0 0 0 0 0 0 0 0 1 1 1 1 0 1 2 3 4 5 4 3 3 3 2 2 2 3 3 3 4 5 5 5 4 3 2 2 2 2 2 2 3 3
0 0 0 0 0 0 0 0 0 0 0 0 0 0 0 1 2 3 4 4 4 3 3 3 2 3 3 4 4 4 4 4 3 3 3 3 3 2 2 2 2 3 3 4
0 0 0 0 0 0 0 0 0 0 0 0 0 0 0 1 1 2 3 2 2 2 2 2 3 3 5 5 5 5 4 4 3 2 3 3 3 3 3 3 3 3 4 4
0 0 0 0 0 0 0 0 0 0 0 0 0 1 1 1 1 1 1 1 2 2 2 2 3 4 5 5 5 4 4 3 3 2 3 3 3 4 4 4 4 4 4 5
0 0 0 0 0 0 0 0 0 0 0 0 0 1 1 1 1 1 1 2 2 3 3 3 3 3 3 4 4 4 3 3 3 3 3 2 2 3 3 3 3 3 4 4
0 0 0 0 0 0 0 0 0 0 0 0 1 1 1 1 1 1 1 2 3 3 3 3 2 2 2 2 3 3 3 4 4 4 3 2 2 2 2 2 2 2 3 3
0 0 0 0 0 0 0 0 0 0 1 0 1 1 1 1 1 1 1 2 2 3 3 2 2 1 1 1 2 2 3 4 5 4 3 2 2 2 2 2 2 2 1 1
0 0 0 0 0 0 0 0 1 1 1 1 1 1 1 1 1 1 1 1 2 2 2 1 1 1 1 1 1 1 2 3 5 5 4 3 3 3 4 4 4 2 1 1
0 0 0 0 0 1 1 0 1 1 1 1 1 1 1 2 2 2 2 1 2 2 1 1 1 1 1 1 1 1 1 2 3 4 4 3 3 4 5 5 5 4 2 1
0 0 0 0 0 0 0 0 0 0 0 0 1 1 1 2 3 2 2 2 2 1 1 1 1 1 1 1 1 1 1 2 3 4 4 3 3 4 5 5 5 4 2 1
0 0 0 1 0 0 0 0 0 0 0 0 0 1 1 2 3 2 2 2 2 2 1 1 1 1 1 1 1 2 2 2 2 3 3 3 3 3 4 5 4 3 2 1
0 0 0 0 0 0 0 0 0 0 0 0 1 1 1 1 2 2 2 2 3 2 1 1 1 1 2 2 2 2 2 2 2 3 3 3 3 3 3 3 3 3 2 1
0 0 0 0 0 0 0 0 0 0 0 0 0 1 1 1 1 1 1 2 2 2 2 1 1 1 2 3 3 3 3 3 3 3 3 3 2 2 2 2 2 2 1 1
0 0 0 0 0 0 0 0 0 0 0 0 0 0 1 1 1 1 1 2 2 1 1 1 0 0 1 2 3 3 3 3 3 3 2 2 2 1 1 1 1 1 0 0
0 0 0 0 0 0 0 0 0 0 0 0 0 0 1 1 1 1 1 1 1 1 0 0 0 0 1 1 2 2 3 3 2 2 1 1 1 0 0 0 0 0 0 0
0 0 0 0 0 0 0 0 0 0 0 0 0 0 0 1 1 1 1 1 1 0 0 0 0 0 0 1 1 2 2 2 2 1 1 0 0 0 0 0 0 0 0 0
0 0 0 0 0 0 0 0 0 0 0 0 0 0 0 0 0 0 0 0 0 0 0 0 0 0 0 0 0 1 1 1 1 0 0 0 0 0 0 0 0 0 0 0
0 0 0 0 0 0 0 0 0 0 1 1 1 1 1 0 0 0 0 0 0 0 0 0 0 0 0 0 0 0 0 0 0 0 0 0 0 0 0 0 0 0 0 0
0 0 0 0 0 0 0 0 0 0 1 1 1 1 0 0 0 0 0 0 0 0 0 0 0 0 0 0 0 0 0 0 0 0 0 0 0 0 0 0 0 0 0 0
0 0 0 0 0 0 0 0 0 1 1 1 1 0 0 0 0 0 0 0 0 0 0 0 0 0 0 0 0 0 0 0 0 0 0 0 0 0 0 0 0 0 0 0
0 0 0 0 0 0 0 0 0 1 1 1 0 0 0 0 0 0 0 0 0 0 0 0 0 0 0 0 0 0 0 0 0 0 0 0 0 0 0 0 0 0 0 0

GEFSNGP_con_maxscp_342.txt.gz
SCP
0 0 0 0 0 0 0 0 0 1 1 1 1 1 2 2 2 3 5 8 8 6 6 6 6 5 6 6 6 5 4 4 4 5 5 7 8 8 7 6 5 4 5 5
0 0 0 0 0 0 0 0 0 1 1 2 2 2 2 2 2 3 5 7 7 7 7 7 6 6 6 6 6 5 4 4 5 5 6 7 8 8 8 6 5 5 5 5
0 0 0 0 0 0 0 0 1 1 2 2 2 3 3 3 3 4 5 7 8 9 9 7 6 6 6 6 5 5 4 4 6 7 8 8 9 9 8 6 5 5 5 5
0 0 0 0 0 1 1 1 1 2 2 3 3 4 4 3 3 4 5 7 9 10 8 5 4 4 5 5 4 4 3 4 6 8 9 9 8 8 7 6 5 5 5 4
0 0 0 0 1 1 1 2 2 2 3 3 4 4 4 3 3 4 7 9 9 8 5 4 3 4 4 4 4 4 4 4 6 8 9 8 7 6 5 4 4 4 4 4
0 0 0 0 1 1 1 2 2 3 3 3 3 3 3 3 4 6 8 8 7 5 4 3 4 5 5 5 5 5 6 6 7 8 8 7 5 4 4 3 3 3 3 3
0 0 0 0 1 1 1 2 2 2 3 2 2 2 3 4 5 6 7 6 5 4 4 4 5 7 7 7 8 9 9 9 9 8 7 6 4 3 3 3 3 3 2 2
0 0 1 1 1 1 1 2 2 2 2 1 1 2 3 5 6 6 5 5 4 4 5 5 6 8 9 9 9 10 10 9 8 7 6 5 4 3 2 3 3 3 2 2
0 1 1 2 2 2 2 2 2 2 1 1 1 2 4 6 7 6 5 4 3 4 5 6 6 7 8 7 7 8 7 7 7 6 5 4 3 3 3 3 3 3 3 3
1 1 1 2 2 2 2 2 2 1 1 1 1 2 4 7 7 6 4 4 3 3 4 5 6 6 6 5 4 4 4 5 6 6 5 4 3 3 3 3 3 3 3 3
1 1 1 1 1 1 1 1 1 1 1 1 2 3 5 7 7 5 5 4 4 4 5 5 6 6 5 4 3 3 3 4 5 6 5 4 4 4 3 3 3 3 3 3
1 0 0 1 1 1 1 1 1 1 1 2 2 3 4 6 6 5 5 5 5 5 5 6 6 5 4 3 3 3 3 3 4 5 5 5 4 4 4 3 2 2 2 1
1 1 1 1 0 0 1 1 1 1 1 2 2 3 4 5 5 5 5 5 5 5 5 5 5 4 3 3 3 3 3 3 3 4 5 5 5 5 5 3 2 1 1 0
1 1 1 1 0 0 0 1 1 1 1 1 2 3 4 4 5 6 6 6 6 6 5 4 4 4 3 3 3 3 3 3 3 3 5 6 6 6 5 5 4 3 2 1
0 1 1 1 0 0 0 0 1 1 1 2 2 3 3 4 5 5 6 7 7 6 5 4 4 4 3 3 3 3 3 3 3 3 5 7 7 6 6 6 6 5 4 2
0 0 0 1 0 0 0 0 1 1 1 2 2 3 3 3 4 5 6 6 6 5 5 5 5 5 4 4 4 3 3 2 3 3 4 6 7 6 6 7 8 7 5 4
0 0 0 1 1 0 0 1 1 1 1 2 2 2 2 3 4 4 5 5 5 5 5 6 6 6 5 4 4 3 3 2 2 3 4 5 6 6 7 8 9 7 5 4
0 0 1 1 1 0 0 1 1 1 1 2 2 2 2 2 3 4 4 4 4 5 6 6 6 5 5 4 4 3 2 2 3 3 4 5 5 6 7 8 7 6 5 4
0 1 1 1 1 1 1 1 1 1 1 1 2 1 2 2 3 3 4 4 5 5 5 5 4 4 3 3 3 3 2 3 3 4 4 5 6 6 7 7 6 4 4 4
0 1 1 1 1 1 1 1 1 2 1 1 1 1 2 2 3 3 4 4 4 5 4 3 2 2 2 2 2 2 2 2 3 4 5 6 7 6 6 5 5 4 4 5
1 1 2 2 2 3 3 2 2 2 1 1 1 1 2 2 2 2 3 3 3 3 2 1 1 1 1 1 1 1 1 2 3 4 5 6 6 6 5 5 5 6 7 7
2 2 3 4 4 4 4 3 3 2 2 1 1 1 2 2 2 2 2 2 2 2 1 1 1 1 0 1 1 1 1 1 2 3 4 4 4 4 4 5 7 8 9 9
4 4 5 5 5 5 5 4 4 3 2 2 2 2 2 2 2 2 2 2 2 2 1 1 1 1 0 0 1 1 1 1 1 2 3 3 4 4 5 6 7 9 9 9
4 5 5 5 5 5 4 4 3 3 2 2 2 2 2 2 2 2 2 1 1 1 1 1 1 0 0 0 1 1 1 1 1 1 2 3 3 4 4 5 5 6 6 6
4 4 4 4 3 3 2 2 2 2 2 2 2 2 2 2 2 2 1 1 1 1 1 1 0 0 0 1 1 1 1 1 1 1 2 2 2 2 2 2 2 2 2 2
2 2 2 2 2 1 1 1 1 1 1 1 1 1 1 1 2 2 1 1 1 1 1 1 0 0 1 1 1 1 1 1 1 1 1 1 1 1 1 1 1 1 1 1
1 1 1 1 1 1 1 0 0 0 0 0 0 1 1 1 1 1 1 1 1 1 1 1 1 0 1 1 1 1 1 1 1 1 1 1 1 1 1 1 1 1 0 0

GEFSNGP_con_maxscp_348.txt.gz
SCP
0 0 0 0 0 0 0 0 1 1 2 4 7 7 5 3 3 5 8 12 13 10 9 8 8 8 10 12 13 13 12 12 12 11 11 13 13 14 15 13 11 8 7 7
0 0 0 0 0 0 1 1 2 2 2 5 8 8 5 3 4 6 8 10 10 9 8 8 9 10 13 14 14 15 15 14 13 12 12 13 13 13 13 11 9 7 6 6
0 0 0 0 1 1 1 2 3 4 4 4 5 5 5 5 6 7 8 8 8 8 9 9 11 13 15 14 14 16 17 16 15 14 12 12 11 10 10 9 8 7 6 6
0 0 0 1 1 1 1 2 3 4 5 5 3 3 5 7 7 7 7 8 9 9 9 10 12 14 14 12 12 15 17 18 18 15 12 10 9 9 8 7 7 7 8 8
0 0 0 1 1 1 1 2 2 4 6 6 5 4 5 6 7 7 9 11 12 10 10 11 12 12 11 9 9 13 18 20 19 16 12 9 8 8 7 7 8 9 10 11
0 0 1 1 1 0 1 1 2 4 6 6 5 5 5 5 7 9 11 13 13 12 11 11 10 9 7 6 8 12 17 19 18 14 11 9 8 8 8 9 10 10 10 10
0 0 1 1 0 1 1 2 3 4 5 5 4 4 4 5 8 10 12 13 13 12 13 12 11 8 6 6 7 9 12 14 12 10 8 8 8 8 9 10 10 9 7 6
1 1 1 1 1 1 2 3 3 3 3 3 3 3 3 6 9 10 11 12 13 14 15 15 13 10 7 6 6 7 8 8 8 7 7 7 8 9 9 9 8 6 5 4
1 1 1 1 2 2 2 2 2 2 2 2 2 2 3 5 9 10 11 12 13 15 17 17 14 11 8 7 6 6 7 7 7 7 6 7 7 7 6 6 5 4 3 3
2 1 1 1 1 1 1 1 1 2 2 2 2 2 2 5 9 11 13 13 13 16 17 17 14 10 8 7 7 7 7 7 6 6 6 5 5 4 4 4 4 3 3 3
1 1 1 1 1 1 1 1 1 1 2 2 2 2 4 7 10 12 13 14 14 16 16 14 12 9 8 7 7 7 7 6 6 5 5 5 4 3 3 3 3 3 3 3
1 1 1 1 1 1 1 1 1 1 1 2 2 3 6 9 10 10 12 15 16 16 15 12 10 9 9 8 8 8 7 7 6 5 6 6 5 5 4 2 2 2 2 2
1 1 1 1 1 1 1 1 1 1 1 1 2 3 6 8 8 8 10 14 16 16 14 12 10 9 9 9 9 9 8 7 5 5 6 7 7 7 6 4 2 2 1 1
1 1 1 1 1 1 1 1 1 1 1 2 2 4 6 6 6 6 8 12 15 15 14 13 10 8 8 8 9 8 7 6 5 5 6 7 7 7 6 5 4 3 2 1
1 1 1 1 1 1 1 1 1 1 1 2 3 5 7 7 7 6 7 11 14 14 13 12 10 7 7 7 7 7 6 5 4 4 5 5 5 5 4 4 4 4 3 2
1 1 1 1 1 1 1 1 1 1 1 2 4 6 7 8 6 5 6 10 13 13 12 12 10 8 6 5 5 5 5 4 4 4 3 3 3 3 3 3 4 4 3 2
1 1 1 1 1 1 1 1 1 1 1 3 4 6 6 6 5 5 6 10 13 14 13 13 11 8 5 4 4 4 4 3 3 3 3 3 3 3 3 3 4 4 3 3
1 1 2 1 1 1 1 1 1 1 2 3 4 4 4 4 5 5 6 9 13 14 14 13 11 8 5 4 4 3 3 3 3 4 4 5 5 5 5 4 4 4 4 4
1 1 1 1 1 1 1 1 1 1 2 3 4 3 3 3 3 4 5 8 12 13 13 11 9 7 4 3 3 3 3 3 4 5 5 6 6 6 6 5 4 4 4 5
2 1 1 1 1 1 1 2 2 2 2 3 3 3 3 3 3 3 4 6 9 11 11 8 6 5 3 2 2 2 3 3 3 4 5 5 5 6 6 5 4 4 4 5
2 1 1 1 1 1 1 2 3 3 3 3 3 3 3 2 2 2 3 4 6 8 7 5 4 3 2 2 2 2 2 3 3 3 3 3 4 4 4 4 3 3 3 4
2 2 2 2 1 1 1 2 4 4 3 3 3 2 2 2 2 2 3 3 5 5 4 3 2 2 1 1 2 2 3 3 2 2 2 2 2 3 3 3 3 3 3 3
3 4 3 2 2 1 2 3 4 4 3 3 2 2 2 2 2 2 2 3 3 2 2 2 1 1 1 1 2 2 2 2 2 2 1 1 1 1 2 2 2 2 2 3
4 5 4 3 2 2 2 3 4 4 3 2 2 2 2 2 2 2 2 2 1 1 1 1 1 1 1 1 2 2 2 2 2 1 1 1 1 1 1 1 1 1 2 2
5 5 5 3 2 3 3 2 2 2 2 1 1 1 2 2 2 1 1 1 1 1 1 1 0 1 1 1 1 2 2 1 1 1 1 1 1 1 2 1 1 1 1 1
4 4 4 3 2 3 3 2 2 1 1 1 1 1 1 1 1 1 1 1 1 1 1 1 1 1 1 1 1 1 2 2 1 1 1 1 2 2 2 1 1 1 1 1
3 3 3 2 3 3 3 2 1 1 1 1 1 1 1 1 1 1 1 2 1 1 1 1 1 1 1 1 1 1 2 2 2 1 1 1 2 2 2 1 1 1 1 1

GEFSNGP_con_maxscp_354.txt.gz
SCP
0 0 0 0 0 0 1 1 1 2 3 3 3 2 2 2 3 4 5 5 5 6 6 5 4 4 4 5 6 7 8 6 6 7 8 8 10 12 11 8 7 5 4 4
0 0 0 0 0 0 1 1 1 2 2 2 2 2 2 2 3 4 5 5 5 5 5 4 4 4 4 6 7 7 7 6 5 7 7 7 10 12 10 8 6 5 4 4
0 0 0 0 0 0 1 1 1 2 2 2 2 2 2 2 3 5 6 6 5 4 4 4 4 4 5 5 7 7 5 4 4 6 6 6 8 10 9 7 5 4 4 3
0 0 0 0 0 1 1 2 1 2 2 2 2 2 2 2 3 4 6 6 5 5 4 4 4 5 5 5 5 5 4 3 3 4 4 5 6 7 7 5 4 3 3 2
0 0 0 0 0 0 1 1 2 2 2 2 3 2 2 2 2 3 5 7 6 6 5 5 5 5 5 4 4 4 3 3 3 3 3 4 4 4 5 4 3 2 2 2
0 0 0 0 0 0 1 1 1 1 2 2 2 2 2 3 3 3 5 7 7 7 6 5 5 4 4 3 3 3 3 2 2 3 3 3 3 3 4 3 2 2 1 1
0 0 0 0 0 0 0 1 1 1 1 1 1 1 2 4 5 6 6 7 9 9 8 6 5 4 3 3 3 3 3 3 3 3 3 3 3 3 3 3 2 2 2 1
0 0 0 0 0 0 0 0 0 0 1 1 1 1 2 5 7 8 8 9 11 12 11 9 6 4 3 3 4 5 5 5 5 4 4 4 4 4 4 3 3 2 2 2
0 0 0 0 0 0 1 1 1 1 1 1 1 1 2 5 7 8 8 10 13 15 13 10 7 4 3 4 6 8 9 8 7 6 5 5 5 5 4 4 3 3 2 2
1 0 0 1 1 1 1 1 1 1 1 1 1 2 3 4 6 7 8 10 13 15 14 10 7 5 4 4 7 10 11 11 9 8 6 6 6 6 5 4 4 3 2 2
1 1 1 1 1 1 1 1 1 1 1 1 2 4 4 5 5 5 6 9 12 13 12 10 7 5 5 6 8 10 12 13 12 9 7 7 6 6 5 4 3 3 3 3
1 1 1 1 1 1 1 1 1 1 1 1 2 4 4 3 4 4 5 7 10 12 12 11 9 7 5 7 9 11 12 13 13 10 8 7 7 6 5 3 2 2 2 2
1 1 1 1 1 1 1 1 1 1 1 1 2 3 2 2 3 4 4 5 7 10 12 11 9 7 5 6 9 11 12 13 12 10 8 7 7 7 6 4 3 2 1 1
1 2 2 2 2 2 1 1 1 1 1 1 2 3 2 3 4 4 4 4 5 7 9 8 7 5 4 4 7 9 10 11 10 8 6 5 6 7 7 6 5 3 1 1
2 3 3 2 2 1 1 1 1 1 1 2 2 3 3 4 4 4 4 4 4 4 5 5 4 3 3 4 6 8 9 9 7 5 4 3 4 5 7 7 7 5 3 1
3 3 2 2 1 1 1 0 0 1 1 2 2 2 3 3 3 3 3 3 3 2 2 2 2 2 2 3 5 6 7 6 5 3 3 2 2 3 4 5 5 4 3 2
2 2 1 1 0 0 0 0 0 1 1 1 1 2 2 2 2 2 2 2 2 1 1 1 2 2 2 2 3 4 4 3 3 2 2 2 2 2 2 2 3 3 2 1
1 1 1 0 0 0 0 0 0 0 1 1 1 1 2 2 1 1 1 1 1 1 1 1 1 2 1 1 1 1 1 1 1 1 1 2 2 2 2 2 2 2 1 1
0 0 0 0 0 0 0 1 0 0 1 1 1 1 1 1 1 1 1 1 1 1 1 1 1 1 1 2 1 1 0 0 0 1 1 1 2 2 2 2 2 2 1 1
0 0 0 0 0 0 1 1 0 0 1 1 1 1 1 1 1 1 1 1 1 1 1 1 1 1 1 2 1 1 0 0 0 1 1 1 1 2 2 2 1 1 1 2
0 0 0 0 0 1 1 0 0 1 1 1 1 1 1 1 1 1 1 1 1 2 2 1 1 1 1 1 1 0 0 0 0 1 1 1 1 1 1 1 1 1 1 1
0 0 0 0 0 1 0 0 0 1 1 1 1 1 1 1 1 1 1 1 1 1 1 1 1 1 1 1 0 0 0 0 0 1 2 2 1 1 1 1 0 0 0 0
0 0 0 0 1 1 0 0 0 1 1 2 2 1 1 1 1 1 1 0 1 1 1 1 0 0 0 0 0 0 0 0 0 1 2 3 2 0 0 0 0 0 0 0
0 0 1 1 1 1 0 0 0 1 1 2 2 2 2 2 1 1 1 0 0 1 1 0 0 0 0 0 0 0 0 0 0 1 2 2 1 0 0 0 0 0 0 0
0 0 1 1 1 1 0 0 0 1 1 1 1 1 2 2 1 1 0 0 0 0 0 0 0 0 0 0 0 0 0 0 0 0 1 1 0 0 0 0 0 0 0 0
0 1 1 1 1 1 0 0 0 0 0 0 0 1 1 1 1 0 0 0 0 0 0 0 0 0 0 0 0 0 0 0 0 0 0 0 0 0 0 0 0 0 0 0
0 1 1 1 1 1 1 0 0 0 0 0 0 0 0 0 0 0 0 0 0 0 0 0 0 0 0 0 0 0 0 0 0 0 0 0 0 0 0 0 0 0 0 0

GEFSNGP_con_maxscp_360.txt.gz
SCP
0 0 0 0 0 0 0 0 0 0 0 1 1 1 1 0 0 0 0 1 1 2 2 2 2 2 2 2 2 2 2 2 2 2 2 2 3 4 4 4 4 3 2 2
0 0 0 0 0 0 0 0 1 1 1 1 1 1 0 0 0 0 0 1 1 2 3 2 2 2 3 2 2 2 3 3 2 2 2 2 2 3 4 4 4 4 3 2
0 0 0 0 0 0 0 1 1 1 1 1 1 1 0 0 0 0 1 1 1 2 3 3 2 2 3 3 3 3 3 3 2 2 2 2 2 3 3 4 4 4 3 3
0 0 0 0 0 0 0 1 1 1 1 1 1 0 0 1 1 1 1 1 1 2 3 3 2 2 3 3 3 3 3 2 1 1 2 2 2 3 3 3 4 4 4 3
0 0 0 0 0 0 0 0 1 1 1 1 1 1 1 1 1 1 1 1 1 2 3 4 3 3 3 4 4 4 3 2 1 1 1 2 2 3 3 3 4 4 4 4
0 0 0 0 0 0 0 0 0 1 1 1 1 1 1 1 1 1 1 1 2 2 3 4 4 3 3 4 4 4 3 2 1 1 1 2 2 3 3 4 4 4 4 4
0 0 0 0 0 0 0 0 0 0 1 1 1 1 0 1 1 1 2 2 3 3 4 4 4 4 4 4 4 3 2 1 1 2 2 2 3 3 4 4 5 5 5 5
0 0 0 0 0 0 0 0 0 0 1 1 0 0 1 1 1 2 2 3 4 5 5 5 5 5 4 4 3 2 2 2 2 3 3 3 4 4 5 6 6 6 6 6
0 0 0 0 0 0 0 0 0 1 1 0 0 1 1 2 2 2 2 3 4 6 6 6 6 5 5 4 3 2 2 3 4 4 5 5 6 6 7 7 8 8 7 7
0 0 0 0 0 0 0 0 1 1 1 1 1 1 2 3 3 2 2 2 4 5 6 6 6 5 4 4 3 3 3 4 6 7 8 9 9 8 9 9 9 9 8 7
0 0 0 0 0 0 1 1 1 1 0 1 2 2 3 4 4 3 2 2 3 4 5 5 4 4 3 3 3 4 5 7 9 10 11 12 11 10 9 9 9 8 7 7
0 0 0 0 0 0 1 1 1 1 0 1 2 3 4 5 5 4 3 3 3 3 3 3 3 3 3 2 2 4 6 7 8 10 11 12 11 9 7 6 5 5 4 4
0 0 0 0 0 1 1 1 1 1 1 1 2 3 4 4 5 5 5 4 4 3 2 2 2 3 2 2 2 2 3 4 5 6 7 8 8 6 5 4 3 2 2 2
0 0 0 1 1 1 1 1 1 1 1 1 1 2 3 4 5 6 7 7 6 4 3 2 2 2 2 1 1 1 2 2 2 2 2 3 4 4 3 3 3 2 2 1
0 0 1 1 1 1 1 0 0 0 1 1 1 2 2 3 4 6 7 8 8 8 6 3 1 1 1 1 1 1 1 1 1 0 0 1 1 1 2 2 2 2 2 1
1 1 1 1 1 0 0 0 0 0 1 1 1 1 2 2 2 3 4 5 8 10 9 4 1 0 0 1 1 1 1 1 0 0 0 0 0 0 1 1 2 2 2 1
1 1 1 1 0 0 0 0 0 0 1 1 1 1 1 1 1 2 3 3 5 7 6 3 0 0 0 1 1 1 1 1 0 0 0 0 0 0 0 1 1 1 1 1
2 1 1 1 0 0 0 0 0 0 1 1 1 1 1 1 1 2 2 2 3 3 2 1 0 0 0 1 1 1 1 1 0 0 0 0 0 0 1 1 1 1 1 1
1 1 1 0 0 0 0 0 0 0 1 1 2 1 1 1 1 1 1 1 1 1 1 0 0 0 0 1 1 1 1 1 0 0 0 0 0 0 0 1 1 1 1 1
1 0 0 0 0 0 0 0 0 0 1 1 1 1 1 1 0 0 1 0 0 0 0 1 1 0 0 0 0 1 0 0 0 0 0 0 0 0 0 0 1 1 1 1
0 0 0 0 0 0 0 0 0 1 1 1 1 1 1 0 0 0 0 0 0 0 1 1 1 0 0 0 0 0 0 0 0 0 0 0 0 0 0 0 1 1 1 0
0 0 0 0 0 0 0 0 1 1 1 1 0 0 0 0 0 0 0 0 0 0 1 1 1 0 0 0 0 0 0 0 0 0 0 0 0 0 0 0 0 1 1 0
0 0 0 0 0 0 0 0 0 1 0 0 0 0 0 0 0 0 0 0 0 0 1 1 1 0 0 0 0 0 0 0 0 0 0 0 0 0 0 0 0 0 0 0
0 0 0 0 0 0 0 0 0 0 0 0 0 0 0 0 0 0 0 0 0 1 1 1 0 0 0 0 0 0 0 0 0 0 0 0 0 0 0 0 0 0 0 0
0 0 0 0 0 0 0 0 0 0 0 0 0 0 0 0 0 0 0 0 0 1 1 1 0 0 0 0 0 0 0 0 0 0 0 0 0 0 0 0 0 0 0 0
0 0 0 0 0 0 0 0 0 0 0 0 0 0 0 0 0 0 0 0 0 1 1 1 0 0 0 0 0 0 0 0 0 0 0 0 0 0 0 0 0 0 0 0
0 0 0 0 0 0 0 0 0 0 0 0 0 0 0 0 0 0 0 0 1 1 1 1 0 0 0 0 0 0 0 0 0 0 0 0 0 0 0 0 0 0 0 0

GEFSNGP_con_maxscp_366.txt.gz
SCP
0 0 0 0 0 0 1 1 1 1 1 2 2 2 1 1 1 1 1 1 2 2 3 4 4 6 7 7 6 5 4 3 3 2 2 2 2 2 2 2 2 2 3 3
0 0 0 0 0 0 0 0 0 1 1 2 2 1 1 1 1 1 1 2 2 2 2 3 4 6 8 9 8 6 4 3 3 2 2 2 2 2 2 2 2 3 3 3
0 0 0 0 0 0 0 0 0 1 1 2 2 1 1 1 2 2 2 2 2 2 2 2 4 7 10 11 10 7 5 4 3 3 3 3 3 3 2 3 3 3 4 4
1 1 0 0 0 0 0 0 0 1 1 1 1 1 1 2 3 3 2 2 2 2 2 2 4 7 11 13 11 9 6 5 4 4 4 4 3 3 3 3 3 4 4 4
1 1 0 0 0 1 1 1 1 1 1 1 1 1 2 3 4 4 3 3 3 3 2 3 4 6 9 11 10 8 6 5 5 5 5 5 4 3 3 3 3 4 4 5
1 0 0 0 0 0 0 1 1 1 1 1 1 1 2 3 4 4 4 4 4 4 3 4 4 5 6 7 8 7 6 6 6 6 6 5 4 3 3 3 3 4 5 5
0 0 0 0 0 0 1 1 1 1 1 1 1 2 2 2 3 3 4 4 4 4 5 5 5 5 5 5 6 7 6 6 6 6 5 4 4 3 3 3 4 4 5 5
1 1 1 1 1 1 1 1 1 1 1 1 2 2 2 2 2 2 3 3 3 4 6 6 5 5 4 5 6 6 6 6 6 5 5 4 4 4 4 4 5 5 5 4
1 1 1 1 1 1 1 1 1 1 1 1 2 2 3 2 2 2 2 3 4 5 6 6 5 4 4 4 5 6 7 6 5 4 4 4 4 4 4 4 4 4 4 4
1 1 1 1 1 1 1 1 1 1 2 1 2 2 3 3 3 3 5 6 8 8 8 6 4 4 4 4 5 6 6 5 4 3 3 4 3 3 3 3 4 4 3 3
1 1 1 1 1 1 1 1 1 2 2 1 2 3 3 3 4 6 8 10 10 9 8 6 4 4 4 4 5 5 4 3 3 3 3 3 3 3 2 2 3 3 3 3
1 1 1 1 1 1 1 1 2 2 2 2 2 3 3 4 4 6 7 8 8 7 6 5 5 5 5 5 6 5 4 3 3 3 3 3 3 2 2 1 1 2 2 2
1 1 1 1 1 1 1 2 2 2 2 2 3 3 3 3 4 4 4 4 5 5 6 6 7 7 6 7 7 7 5 4 3 3 3 3 3 2 2 1 1 0 0 0
1 1 1 1 1 1 1 1 2 2 2 2 2 2 3 3 3 3 3 4 4 5 6 8 8 8 8 8 7 6 5 3 3 3 3 3 3 3 2 2 1 1 0 0
2 2 2 1 1 2 2 2 2 2 2 2 2 3 3 3 3 3 3 4 4 5 6 7 8 8 8 7 6 5 3 2 2 2 3 3 3 3 3 2 1 1 1 0
2 2 1 2 2 2 3 3 3 2 2 2 3 3 3 3 3 3 3 3 3 3 4 5 6 7 7 6 6 5 3 2 2 2 2 3 3 3 3 2 1 1 1 1
1 1 1 2 3 3 3 3 3 3 3 3 3 3 3 4 4 4 3 2 2 2 3 4 4 4 5 5 6 5 4 3 3 3 3 3 3 3 2 2 1 1 1 0
1 1 2 2 3 3 4 3 3 3 3 3 4 4 4 4 5 4 3 2 1 2 2 2 3 3 4 5 6 6 5 4 4 3 3 3 3 2 2 1 1 1 1 1
2 2 2 2 2 2 3 3 3 3 3 3 3 4 4 5 5 4 3 2 1 1 2 2 2 2 3 3 4 5 5 4 4 3 2 2 2 2 2 1 1 1 1 1
2 1 1 1 1 1 1 2 2 2 2 2 3 4 5 6 6 4 3 1 1 2 2 2 1 1 2 2 2 2 2 2 2 2 2 2 1 1 1 1 1 1 1 1
1 1 1 1 1 1 1 1 1 1 1 2 3 4 6 6 6 4 2 1 1 2 2 2 1 1 1 1 1 1 1 1 1 1 1 1 1 1 1 1 1 1 1 0
1 1 1 1 1 1 1 1 1 1 1 2 2 4 5 5 4 3 2 2 2 2 2 1 1 1 1 1 1 1 1 1 1 1 1 2 2 1 1 1 1 1 0 0
1 1 1 1 1 1 1 1 1 1 1 2 2 3 4 4 3 2 2 1 1 2 2 1 1 1 1 1 1 1 1 1 1 1 2 2 2 1 1 1 1 1 1 1
1 1 1 1 1 1 1 1 1 1 1 2 2 3 3 2 2 1 1 1 1 1 1 1 1 0 1 1 1 1 1 1 1 2 2 2 2 1 1 1 1 1 1 1
1 1 1 1 1 1 1 1 1 1 2 3 3 3 2 2 1 1 1 1 1 1 2 2 1 1 1 2 2 1 1 1 1 2 2 2 2 2 1 1 1 1 1 1
1 1 1 1 1 1 1 1 1 2 3 3 3 2 2 2 1 1 1 1 1 1 3 3 2 1 2 2 2 1 1 1 1 1 2 3 3 2 2 1 1 1 0 0
1 1 1 1 1 1 1 1 1 2 3 3 2 2 2 1 1 1 0 0 1 1 3 3 3 2 2 2 2 1 1 1 1 1 2 3 3 3 2 2 1 1 0 0